Meteo pe oră la Encarnación

Astăzi, 22 Ianuarie, Vineri

Timp Temperatura Precipitaţii Vânt Presiune Umiditate
00:00 +22°C° 0 mm 3 m/s 752 mmHg 94%
01:00 +22°C° 0 mm 3 m/s 752 mmHg 94%
02:00 +22°C° 0 mm 3 m/s 752 mmHg 95%
03:00 +24°C° 0 mm 3 m/s 752 mmHg 94%
04:00 +24°C° 0 mm 3 m/s 752 mmHg 93%
05:00 +24°C° 0 mm 3 m/s 753 mmHg 93%
06:00 +25°C° 0.3 mm 3 m/s 753 mmHg 90%
07:00 +26°C° 0.3 mm 3 m/s 754 mmHg 87%
08:00 +27°C° 0.3 mm 3 m/s 754 mmHg 84%
09:00 +28°C° 0.3 mm 3 m/s 754 mmHg 78%
10:00 +30°C° 0.3 mm 2 m/s 754 mmHg 72%
11:00 +31°C° 0.3 mm 2 m/s 753 mmHg 66%
12:00 +32°C° 0.3 mm 2 m/s 753 mmHg 61%
13:00 +34°C° 0.3 mm 2 m/s 752 mmHg 56%
14:00 +35°C° 0.3 mm 2 m/s 752 mmHg 51%
15:00 +34°C° 0.4 mm 2 m/s 752 mmHg 59%
16:00 +31°C° 0.4 mm 2 m/s 752 mmHg 67%
17:00 +30°C° 0.4 mm 2 m/s 751 mmHg 74%
18:00 +29°C° 0.2 mm 2 m/s 752 mmHg 78%
19:00 +27°C° 0.2 mm 1 m/s 752 mmHg 83%
20:00 +26°C° 0.2 mm 1 m/s 752 mmHg 87%
21:00 +26°C° 0 mm 1 m/s 752 mmHg 88%
22:00 +25°C° 0 mm 1 m/s 752 mmHg 90%
23:00 +25°C° 0 mm 1 m/s 753 mmHg 91%

Mâine, 23 Ianuarie, Sâmbătă

Timp Temperatura Precipitaţii Vânt Presiune Umiditate
00:00 +24°C° 0 mm 1 m/s 752 mmHg 93%
01:00 +24°C° 0 mm 1 m/s 752 mmHg 94%
02:00 +24°C° 0 mm 1 m/s 752 mmHg 95%
03:00 +24°C° 0 mm 2 m/s 752 mmHg 95%
04:00 +23°C° 0 mm 2 m/s 752 mmHg 95%
05:00 +23°C° 0 mm 2 m/s 752 mmHg 96%
06:00 +25°C° 0 mm 2 m/s 752 mmHg 87%
07:00 +27°C° 0 mm 2 m/s 753 mmHg 79%
08:00 +29°C° 0 mm 3 m/s 753 mmHg 71%
09:00 +31°C° 0 mm 3 m/s 753 mmHg 62%
10:00 +34°C° 0 mm 3 m/s 752 mmHg 53%
11:00 +36°C° 0 mm 3 m/s 752 mmHg 44%
12:00 +37°C° 0 mm 2 m/s 751 mmHg 43%
13:00 +37°C° 0 mm 2 m/s 751 mmHg 41%
14:00 +38°C° 0 mm 2 m/s 750 mmHg 40%
15:00 +36°C° 0 mm 1 m/s 750 mmHg 44%
16:00 +35°C° 0 mm 1 m/s 749 mmHg 49%
17:00 +34°C° 0 mm 1 m/s 749 mmHg 53%
18:00 +31°C° 1.1 mm 2 m/s 749 mmHg 66%
19:00 +28°C° 1.1 mm 2 m/s 749 mmHg 79%
20:00 +26°C° 1.1 mm 2 m/s 750 mmHg 93%
21:00 +25°C° 0.1 mm 2 m/s 750 mmHg 93%
22:00 +25°C° 0.1 mm 2 m/s 750 mmHg 94%
23:00 +25°C° 0.1 mm 2 m/s 750 mmHg 95%

Poimâine, 24 Ianuarie, Duminică

Timp Temperatura Precipitaţii Vânt Presiune Umiditate
00:00 +25°C° 0 mm 2 m/s 750 mmHg 96%
01:00 +25°C° 0 mm 2 m/s 750 mmHg 96%
02:00 +24°C° 0 mm 2 m/s 750 mmHg 96%
03:00 +24°C° 0 mm 2 m/s 750 mmHg 97%
04:00 +24°C° 0 mm 2 m/s 750 mmHg 97%
05:00 +24°C° 0 mm 2 m/s 750 mmHg 97%
06:00 +25°C° 0 mm 2 m/s 750 mmHg 89%
07:00 +27°C° 0 mm 3 m/s 750 mmHg 82%
08:00 +28°C° 0 mm 3 m/s 751 mmHg 75%
09:00 +30°C° 0.2 mm 3 m/s 750 mmHg 69%
10:00 +33°C° 0.2 mm 3 m/s 750 mmHg 63%
11:00 +35°C° 0.2 mm 3 m/s 750 mmHg 57%
12:00 +36°C° 0.4 mm 2 m/s 749 mmHg 53%
13:00 +37°C° 0.4 mm 2 m/s 749 mmHg 49%
14:00 +36°C° 0.4 mm 1 m/s 748 mmHg 45%
15:00 +35°C° 0.7 mm 1 m/s 748 mmHg 53%
16:00 +34°C° 0.7 mm 2 m/s 747 mmHg 62%
17:00 +31°C° 0.7 mm 2 m/s 747 mmHg 71%
18:00 +29°C° 2.8 mm 2 m/s 747 mmHg 80%
19:00 +27°C° 2.8 mm 2 m/s 747 mmHg 88%
20:00 +25°C° 2.8 mm 2 m/s 748 mmHg 96%
21:00 +25°C° 0.3 mm 2 m/s 748 mmHg 96%
22:00 +25°C° 0.3 mm 2 m/s 748 mmHg 96%
23:00 +25°C° 0.3 mm 2 m/s 748 mmHg 96%

25 Ianuarie, Luni

Timp Temperatura Precipitaţii Vânt Presiune Umiditate
00:00 +25°C° 0 mm 2 m/s 748 mmHg 96%
01:00 +25°C° 0 mm 2 m/s 748 mmHg 95%
02:00 +25°C° 0 mm 2 m/s 747 mmHg 95%
03:00 +25°C° 0.1 mm 2 m/s 747 mmHg 95%
04:00 +25°C° 0.1 mm 2 m/s 747 mmHg 95%
05:00 +25°C° 0.1 mm 2 m/s 747 mmHg 95%
06:00 +25°C° 0.2 mm 2 m/s 748 mmHg 94%
07:00 +25°C° 0.2 mm 2 m/s 748 mmHg 93%
08:00 +25°C° 0.2 mm 2 m/s 749 mmHg 93%
09:00 +26°C° 0.5 mm 2 m/s 749 mmHg 89%
10:00 +27°C° 0.5 mm 2 m/s 749 mmHg 86%
11:00 +27°C° 0.5 mm 2 m/s 749 mmHg 83%
12:00 +29°C° 0.4 mm 2 m/s 748 mmHg 77%
13:00 +30°C° 0.4 mm 2 m/s 747 mmHg 71%
14:00 +32°C° 0.4 mm 2 m/s 747 mmHg 65%
15:00 +31°C° 0.2 mm 2 m/s 746 mmHg 67%
16:00 +31°C° 0.2 mm 1 m/s 746 mmHg 69%
17:00 +31°C° 0.2 mm 1 m/s 746 mmHg 70%
18:00 +30°C° 0 mm 2 m/s 746 mmHg 73%
19:00 +29°C° 0 mm 2 m/s 746 mmHg 76%
20:00 +28°C° 0 mm 2 m/s 746 mmHg 78%
21:00 +27°C° 0 mm 2 m/s 747 mmHg 81%
22:00 +27°C° 0 mm 2 m/s 747 mmHg 84%
23:00 +26°C° 0 mm 2 m/s 747 mmHg 87%

26 Ianuarie, Marţi

Timp Temperatura Precipitaţii Vânt Presiune Umiditate
00:00 +26°C° 0 mm 2 m/s 746 mmHg 88%
01:00 +26°C° 0 mm 2 m/s 746 mmHg 89%
02:00 +25°C° 0 mm 2 m/s 746 mmHg 90%
03:00 +25°C° 0 mm 2 m/s 746 mmHg 90%
04:00 +25°C° 0 mm 2 m/s 746 mmHg 89%
05:00 +25°C° 0 mm 2 m/s 746 mmHg 89%
06:00 +27°C° 0 mm 3 m/s 747 mmHg 81%
07:00 +29°C° 0 mm 4 m/s 747 mmHg 72%
08:00 +32°C° 0 mm 4 m/s 748 mmHg 64%
09:00 +33°C° 0 mm 4 m/s 747 mmHg 58%
10:00 +35°C° 0 mm 4 m/s 747 mmHg 53%
11:00 +37°C° 0 mm 5 m/s 747 mmHg 47%
12:00 +39°C° 0 mm 5 m/s 746 mmHg 44%
13:00 +38°C° 0 mm 4 m/s 746 mmHg 42%
14:00 +40°C° 0 mm 4 m/s 745 mmHg 40%
15:00 +38°C° 0 mm 4 m/s 744 mmHg 43%
16:00 +38°C° 0 mm 4 m/s 744 mmHg 45%
17:00 +37°C° 0 mm 3 m/s 744 mmHg 48%
18:00 +35°C° 0 mm 3 m/s 744 mmHg 54%
19:00 +33°C° 0 mm 3 m/s 744 mmHg 60%
20:00 +30°C° 0 mm 2 m/s 744 mmHg 66%
21:00 +30°C° 0.1 mm 2 m/s 745 mmHg 70%
22:00 +29°C° 0.1 mm 3 m/s 745 mmHg 73%
23:00 +28°C° 0.1 mm 3 m/s 745 mmHg 77%

27 Ianuarie, Miercuri

Timp Temperatura Precipitaţii Vânt Presiune Umiditate
00:00 +27°C° 1.5 mm 2 m/s 745 mmHg 84%
01:00 +26°C° 1.5 mm 2 m/s 745 mmHg 91%
02:00 +25°C° 1.5 mm 2 m/s 745 mmHg 98%
03:00 +25°C° 7.7 mm 2 m/s 745 mmHg 98%
04:00 +25°C° 7.7 mm 1 m/s 745 mmHg 98%
05:00 +25°C° 7.7 mm 1 m/s 745 mmHg 98%
06:00 +25°C° 4.5 mm 2 m/s 746 mmHg 98%
07:00 +25°C° 4.5 mm 3 m/s 747 mmHg 98%
08:00 +25°C° 4.5 mm 4 m/s 747 mmHg 98%
09:00 +26°C° 1.3 mm 4 m/s 747 mmHg 94%
10:00 +27°C° 1.3 mm 4 m/s 747 mmHg 90%
11:00 +28°C° 1.3 mm 4 m/s 747 mmHg 86%
12:00 +29°C° 0.2 mm 4 m/s 746 mmHg 82%
13:00 +30°C° 0.2 mm 3 m/s 746 mmHg 78%
14:00 +31°C° 0.2 mm 3 m/s 746 mmHg 74%
15:00 +30°C° 0.4 mm 3 m/s 746 mmHg 78%
16:00 +30°C° 0.4 mm 2 m/s 745 mmHg 82%
17:00 +29°C° 0.4 mm 2 m/s 745 mmHg 86%
18:00 +28°C° 0.2 mm 1 m/s 746 mmHg 89%
19:00 +27°C° 0.2 mm 1 m/s 746 mmHg 91%
20:00 +26°C° 0.2 mm 1 m/s 746 mmHg 94%
21:00 +25°C° 0 mm 1 m/s 747 mmHg 95%
22:00 +25°C° 0 mm 1 m/s 747 mmHg 96%
23:00 +24°C° 0 mm 1 m/s 747 mmHg 97%
Arată mai mult

Formular de consimțământ

Meteoprog și furnizorii noștri de servicii pot stoca și accesa date personale, precum cookies, identificatori de dispozitiv sau alte tehnologii similare pe dispozitivul dumneavoastră și procesa astfel de date pentru a personaliza conținutul și reclamele, dar și pentru a oferi caracteristici de social media și pentru a analiza traficul.

  • Stocarea și/sau accesarea informațiilor pe dispozitivul dumneavoastră

    Cookies, identificatori de dispozitiv sau alte informații pot fi stocate sau accesate pe dispozitiv în scopurile indicate mai sus.

  • Reclame și conținut personalizat, evaluarea reclamelor și a conținutului, informații despre audiențe și dezvoltarea produselor

    Reclamele și conținutul pot fi personalizate pe baza unui profil. Pot fi adăugate date suplimentare pentru a personaliza mai bine reclamele și conținutul. Performanța reclamelor și conținutului poate fi măsurată. Pot fi obținute informații despre utilizatorii care au văzut reclamele și conținutul. Aceste date pot fi utilizate pentru a dezvolta sau îmbunătăți experiența utilizatorilor, sistemele și software-ul.

Dând clic pe ‘Sunt de acord’, permiteți utilizarea cookie-urilor menționate, a identificatorilor de dispozitiv, balizelor web sau altor tehnologii similare. Setările pot fi modificate din browser-ul dispozitivului dumneavoastră.

În anumite scopuri, interesele legitime pot prima asupra consimțământului. Puteți citi mai multe informații în acest sens în Politica privind Confidențialitatea Datelor și Cookie.